This is the latest recevied weather packets stored in our database for station/object W2OBX. If no packets are shown the sender has not sent any weather packets the latest 10 day(s).
| Time | Temp. | Humidity | Pressure | Rain* | Wind** | Luminosity | Snow |
|---|---|---|---|---|---|---|---|
| 1777741298 | 16.11° C | 36% | 1015.7 hPa | 0 mm | - | 710 W/m² | - |
| 1777740995 | 15.56° C | 38% | 1015.9 hPa | 0 mm | - | 522 W/m² | - |
| 1777740691 | 15.56° C | 37% | 1016.2 hPa | 0 mm | - | 130 W/m² | - |
| 1777740387 | 15.56° C | 37% | 1016.1 hPa | 0 mm | - | 102 W/m² | - |
| 1777740079 | 15.56° C | 38% | 1016.3 hPa | 0 mm | - | 96 W/m² | - |
| 1777739775 | 15.56° C | 45% | 1016.2 hPa | 0 mm | - | 93 W/m² | - |
| 1777739472 | 15.56° C | 39% | 1015.9 hPa | 0 mm | - | 54 W/m² | - |
| 1777739168 | 15.56° C | 37% | 1016.3 hPa | 0 mm | - | 34 W/m² | - |
| 1777738866 | 15.56° C | 39% | 1016.3 hPa | 0 mm | - | 35 W/m² | - |
| 1777738563 | 15.56° C | 37% | 1016.3 hPa | 0 mm | - | 28 W/m² | - |
| 1777738260 | 15.56° C | 37% | 1016.2 hPa | 0 mm | - | 28 W/m² | - |
| 1777737958 | 15.56° C | 41% | 1016.3 hPa | 0 mm | - | 27 W/m² | - |
| 1777737656 | 15° C | 47% | 1016.6 hPa | 0 mm | - | 27 W/m² | - |
| 1777737354 | 15° C | 45% | 1016.4 hPa | 0 mm | - | 28 W/m² | - |
| 1777737051 | 14.44° C | 47% | 1016.3 hPa | 0 mm | - | 26 W/m² | - |
| 1777736746 | 13.89° C | 44% | 1016.4 hPa | 0 mm | - | 25 W/m² | - |
| 1777736119 | 13.89° C | 45% | 1016.5 hPa | 0 mm | - | 24 W/m² | - |
| 1777735816 | 13.89° C | 48% | 1016.7 hPa | 0 mm | - | 23 W/m² | - |
| 1777735514 | 13.89° C | 46% | 1016.5 hPa | 0 mm | - | 23 W/m² | - |
| 1777735211 | 13.89° C | 44% | 1016.5 hPa | 0 mm | - | 22 W/m² | - |
| 1777734907 | 13.89° C | 47% | 1016.5 hPa | 0 mm | - | 22 W/m² | - |
| 1777734605 | 13.89° C | 49% | 1016.7 hPa | 0 mm | - | 23 W/m² | - |
| 1777734302 | 13.89° C | 48% | 1016.5 hPa | 0 mm | - | 93 W/m² | - |
| 1777733998 | 13.89° C | 50% | 1016.5 hPa | 0 mm | - | 23 W/m² | - |
| 1777733695 | 13.33° C | 52% | 1016.6 hPa | 0 mm | - | 22 W/m² | - |
* Rain latest hour (hover to see other rain measurements)
** Current wind speed in m/s (hover to see current wind gust speed)